COSMOS 397 DEB, 5011

Orbit data source: Space-Track

COSMOS 397 DEB, 5011 is space debris in LEO originally from a launch on Thu, 25 Feb 1971 UTC launched from the Tyuratam Missile And Space Complex (TTMTR). Debris objects in space refer to the collection of defunct objects orbiting the Earth. Examples of debris include non-operational satellites, rocket bodies, and fragments generated from explosions, collisions, or faulty payload assembly.

Loading next visibility...
Identifier
5011, 1971-015E
Orbit
LEO
Country
Flag of CISCIS
Related business
Manufacturer
Unknown
Mission
Spacecraft
Bus & Motor
Unknown
Mass
Unknown
Launch date (UTC)
1971-02-25 (55 years ago)
Launch vehicle
Unknown
Launch site
Tyuratam Missile And Space Complex (TTMTR)
Object type
Payload
Rocket body
Debris
Shape & HBR
Unknown shape, 0.1 m
Radar Cross Section
Small (<0.1 m²)

Expand to show TLE details & history
Last TLE update: 5 hours ago

TLE from 5 hours ago
0 COSMOS 397 DEB
1 05011U 71015E   25349.97655537  .00003471  00000-0  64900-3 0  9998
2 05011  65.6707 302.7636 0386787 105.7546 258.6548 14.27728165694699
Epoch: 2025-12-15T23:26Z
TLE epoch observation values (Epoch: 2025-12-15T23:26:14.383Z)
Latitude
-0.00003°
Longitude
-133.66374°
Altitude
866.181 km
Speed
7.386 km/s
True Right ascension
20h 11m 03s
True Declination
0° 00' 00"
Sunlit
Object was in daylight at epoch
Visualization orbit readout
Latitude
Unknown
Longitude
Unknown
Altitude
Unknown
Speed
Unknown
Apparent Right ascension
Unknown
Apparent Declination
Unknown
Sunlit
N/A
Visualization observer readout
Local Sidereal Time
03:08:07
Azimuth
Unknown
Elevation
Unknown
Doppler factor
Unknown
Orbital elements
Apogee altitude
1,075.387 km
Perigee altitude
520.273 km
Semi-major axis
7,175.967 km
Eccentricity
0.03868
Inclination
65.6707°
RAAN
302.7636°
Arg. of periapsis
105.7546°
True anomaly
254.35415°
Mean anomaly
258.6548°
Eccentric anomaly
256.49991°
Mean motion
3.57045 °/min
Orbital period
100.83 mins
BSTAR
0.000649
Loading maneuver chart data...
Computing Atmospheric mass density...

Documentation

Showing up to 5 results
|